• In Austria
  • List of Countries
  • For 7 days
  • Water Temperature
  • Satellite Maps
  • Weather Map
  • News
  • Weather Widgets
  • user-avatar
    Login

    Hourly Weather Yulara

    Today, 12 December, Tuesday

    Time Temperature Precipitation Wind Pressure Humidity
    00:00 +32°C° 0 mm 4 mps 717 mmHg 10%
    01:00 +30°C° 0 mm 4 mps 717 mmHg 11%
    02:00 +29°C° 0 mm 3 mps 716 mmHg 11%
    03:00 +28°C° 0 mm 3 mps 716 mmHg 12%
    04:00 +28°C° 0 mm 3 mps 716 mmHg 13%
    05:00 +28°C° 0 mm 3 mps 716 mmHg 13%
    06:00 +28°C° 0 mm 3 mps 717 mmHg 13%
    07:00 +30°C° 0 mm 4 mps 717 mmHg 12%
    08:00 +34°C° 0 mm 5 mps 717 mmHg 10%
    09:00 +37°C° 0 mm 5 mps 717 mmHg 7%
    10:00 +38°C° 0 mm 4 mps 717 mmHg 8%
    11:00 +38°C° 0 mm 2 mps 717 mmHg 8%
    12:00 +39°C° 0 mm 1 mps 716 mmHg 8%
    13:00 +40°C° 0 mm 1 mps 716 mmHg 8%
    14:00 +40°C° 0 mm 1 mps 715 mmHg 8%
    15:00 +40°C° 0 mm 2 mps 715 mmHg 8%
    16:00 +40°C° 0 mm 2 mps 715 mmHg 9%
    17:00 +40°C° 0 mm 3 mps 715 mmHg 9%
    18:00 +40°C° 0 mm 3 mps 715 mmHg 10%
    19:00 +39°C° 0 mm 5 mps 715 mmHg 15%
    20:00 +36°C° 0 mm 7 mps 715 mmHg 21%
    21:00 +34°C° 0 mm 9 mps 715 mmHg 25%
    22:00 +35°C° 0 mm 7 mps 715 mmHg 24%
    23:00 +35°C° 0 mm 5 mps 715 mmHg 23%

    Tomorrow, 13 December, Wednesday

    Time Temperature Precipitation Wind Pressure Humidity
    00:00 +35°C° 0 mm 3 mps 715 mmHg 21%
    01:00 +34°C° 0 mm 3 mps 714 mmHg 23%
    02:00 +32°C° 0 mm 2 mps 714 mmHg 24%
    03:00 +31°C° 0 mm 2 mps 713 mmHg 26%
    04:00 +31°C° 0 mm 2 mps 714 mmHg 27%
    05:00 +31°C° 0 mm 1 mps 714 mmHg 28%
    06:00 +31°C° 0 mm 1 mps 714 mmHg 29%
    07:00 +34°C° 0 mm 2 mps 714 mmHg 26%
    08:00 +36°C° 0 mm 2 mps 714 mmHg 23%
    09:00 +38°C° 0 mm 2 mps 715 mmHg 20%
    10:00 +39°C° 0 mm 3 mps 714 mmHg 19%
    11:00 +41°C° 0 mm 4 mps 714 mmHg 17%
    12:00 +43°C° 0 mm 5 mps 714 mmHg 16%
    13:00 +43°C° 0 mm 4 mps 714 mmHg 16%
    14:00 +42°C° 0 mm 4 mps 713 mmHg 16%
    15:00 +42°C° 0 mm 4 mps 713 mmHg 16%
    16:00 +40°C° 0.3 mm 6 mps 713 mmHg 22%
    17:00 +38°C° 0.3 mm 9 mps 713 mmHg 27%
    18:00 +37°C° 0.3 mm 11 mps 713 mmHg 33%
    19:00 +34°C° 0.7 mm 10 mps 713 mmHg 37%
    20:00 +32°C° 0.7 mm 9 mps 714 mmHg 42%
    21:00 +31°C° 0.7 mm 8 mps 714 mmHg 47%
    22:00 +30°C° 0.1 mm 7 mps 714 mmHg 46%
    23:00 +30°C° 0.1 mm 6 mps 714 mmHg 45%

    Day after tomorrow, 14 December, Thursday

    Time Temperature Precipitation Wind Pressure Humidity
    00:00 +30°C° 0.1 mm 5 mps 714 mmHg 44%
    01:00 +30°C° 0 mm 4 mps 714 mmHg 45%
    02:00 +29°C° 0 mm 3 mps 714 mmHg 45%
    03:00 +29°C° 0 mm 2 mps 713 mmHg 45%
    04:00 +29°C° 0 mm 3 mps 714 mmHg 47%
    05:00 +29°C° 0 mm 4 mps 714 mmHg 48%
    06:00 +29°C° 0 mm 4 mps 714 mmHg 49%
    07:00 +30°C° 0 mm 5 mps 715 mmHg 46%
    08:00 +32°C° 0 mm 6 mps 715 mmHg 43%
    09:00 +33°C° 0 mm 7 mps 715 mmHg 41%
    10:00 +35°C° 0 mm 7 mps 715 mmHg 37%
    11:00 +36°C° 0 mm 6 mps 715 mmHg 34%
    12:00 +38°C° 0 mm 6 mps 715 mmHg 31%
    13:00 +39°C° 0 mm 6 mps 714 mmHg 29%
    14:00 +39°C° 0 mm 5 mps 714 mmHg 27%
    15:00 +40°C° 0 mm 5 mps 713 mmHg 24%
    16:00 +40°C° 0 mm 5 mps 713 mmHg 24%
    17:00 +39°C° 0 mm 5 mps 713 mmHg 24%
    18:00 +39°C° 0 mm 6 mps 713 mmHg 24%
    19:00 +38°C° 0 mm 6 mps 714 mmHg 26%
    20:00 +36°C° 0 mm 6 mps 714 mmHg 28%
    21:00 +35°C° 0 mm 6 mps 715 mmHg 30%
    22:00 +34°C° 0 mm 7 mps 715 mmHg 31%
    23:00 +34°C° 0 mm 7 mps 715 mmHg 32%

    15 December, Friday

    Time Temperature Precipitation Wind Pressure Humidity
    00:00 +33°C° 0 mm 8 mps 715 mmHg 33%
    01:00 +32°C° 0 mm 7 mps 715 mmHg 33%
    02:00 +30°C° 0 mm 7 mps 715 mmHg 33%
    03:00 +30°C° 0 mm 7 mps 715 mmHg 34%
    04:00 +29°C° 0 mm 7 mps 715 mmHg 34%
    05:00 +28°C° 0 mm 7 mps 715 mmHg 35%
    06:00 +28°C° 0 mm 7 mps 715 mmHg 35%
    07:00 +29°C° 0 mm 7 mps 716 mmHg 34%
    08:00 +30°C° 0 mm 6 mps 716 mmHg 32%
    09:00 +32°C° 0 mm 6 mps 716 mmHg 30%
    10:00 +33°C° 0 mm 6 mps 716 mmHg 29%
    11:00 +34°C° 0 mm 5 mps 716 mmHg 28%
    12:00 +35°C° 0 mm 4 mps 716 mmHg 27%
    13:00 +36°C° 0 mm 4 mps 715 mmHg 26%
    14:00 +36°C° 0 mm 4 mps 714 mmHg 25%
    15:00 +37°C° 0 mm 4 mps 714 mmHg 24%
    16:00 +37°C° 0 mm 5 mps 714 mmHg 24%
    17:00 +37°C° 0 mm 5 mps 714 mmHg 24%
    18:00 +36°C° 0 mm 5 mps 714 mmHg 25%
    19:00 +35°C° 0.1 mm 4 mps 714 mmHg 27%
    20:00 +35°C° 0.1 mm 3 mps 715 mmHg 29%
    21:00 +34°C° 0.1 mm 2 mps 715 mmHg 32%
    22:00 +32°C° 0 mm 2 mps 715 mmHg 33%
    23:00 +32°C° 0 mm 2 mps 715 mmHg 34%

    16 December, Saturday

    Time Temperature Precipitation Wind Pressure Humidity
    00:00 +31°C° 0 mm 1 mps 715 mmHg 36%
    01:00 +31°C° 0 mm 2 mps 715 mmHg 36%
    02:00 +31°C° 0 mm 2 mps 715 mmHg 36%
    03:00 +30°C° 0 mm 2 mps 715 mmHg 36%
    04:00 +30°C° 0 mm 3 mps 715 mmHg 34%
    05:00 +30°C° 0 mm 4 mps 715 mmHg 32%
    06:00 +29°C° 0 mm 4 mps 715 mmHg 30%
    07:00 +32°C° 0 mm 5 mps 716 mmHg 27%
    08:00 +34°C° 0 mm 6 mps 716 mmHg 24%
    09:00 +36°C° 0 mm 7 mps 717 mmHg 20%
    10:00 +39°C° 0 mm 7 mps 716 mmHg 19%
    11:00 +40°C° 0 mm 6 mps 716 mmHg 18%
    12:00 +41°C° 0 mm 6 mps 715 mmHg 17%
    13:00 +42°C° 0 mm 5 mps 715 mmHg 16%
    14:00 +42°C° 0 mm 5 mps 714 mmHg 15%
    15:00 +43°C° 0 mm 4 mps 713 mmHg 15%
    16:00 +42°C° 0 mm 4 mps 713 mmHg 15%
    17:00 +42°C° 0 mm 4 mps 713 mmHg 15%
    18:00 +42°C° 0 mm 4 mps 713 mmHg 16%
    19:00 +41°C° 0 mm 4 mps 713 mmHg 18%
    20:00 +40°C° 0 mm 4 mps 714 mmHg 19%
    21:00 +38°C° 0 mm 4 mps 714 mmHg 21%
    22:00 +37°C° 0 mm 4 mps 714 mmHg 25%
    23:00 +36°C° 0 mm 5 mps 714 mmHg 28%

    17 December, Sunday

    Time Temperature Precipitation Wind Pressure Humidity
    00:00 +35°C° 0 mm 6 mps 714 mmHg 32%
    01:00 +34°C° 0 mm 7 mps 713 mmHg 37%
    02:00 +33°C° 0 mm 7 mps 713 mmHg 43%
    03:00 +32°C° 0 mm 7 mps 712 mmHg 48%
    04:00 +32°C° 0 mm 6 mps 713 mmHg 48%
    05:00 +32°C° 0 mm 5 mps 713 mmHg 47%
    06:00 +31°C° 0 mm 3 mps 713 mmHg 47%
    07:00 +34°C° 0 mm 4 mps 714 mmHg 42%
    08:00 +35°C° 0 mm 5 mps 714 mmHg 38%
    09:00 +38°C° 0 mm 6 mps 714 mmHg 33%
    10:00 +40°C° 0 mm 6 mps 714 mmHg 29%
    11:00 +41°C° 0 mm 5 mps 713 mmHg 25%
    12:00 +43°C° 0 mm 5 mps 713 mmHg 21%
    13:00 +43°C° 0 mm 5 mps 712 mmHg 20%
    14:00 +43°C° 0 mm 5 mps 711 mmHg 20%
    15:00 +43°C° 0 mm 5 mps 711 mmHg 20%
    16:00 +44°C° 0 mm 6 mps 711 mmHg 20%
    17:00 +44°C° 0 mm 7 mps 711 mmHg 20%
    18:00 +43°C° 0 mm 7 mps 711 mmHg 21%
    19:00 +41°C° 0 mm 7 mps 712 mmHg 24%
    20:00 +40°C° 0 mm 7 mps 712 mmHg 27%
    21:00 +39°C° 0 mm 7 mps 712 mmHg 30%
    22:00 +39°C° 0 mm 7 mps 712 mmHg 31%
    23:00 +38°C° 0 mm 7 mps 712 mmHg 32%
    Show more